[[{"header":{"parameterUnit":"m.s-1","parameterCategory":1,"la1":30.2991,"la2":30.254,"lo1":-89.0895,"lo2":-89.0444,"dy":0.0017,"dx":0.0017,"nx":28,"ny":28,"refTime":"2024-03-01T09:00:00:Z","depth":0,"parameterNumber":2,"parameterNumberName":"U-component_of_WINDS"},"data":[0,0,0,0,0,0,0,0,0,0,0,0,0,0,0,0,0,0,0,0,0,0,0,0,0,0,0,0,0,0,0,0,0,0,0,0,0,0,0,0,0,0,0,0,0,0,0,0,0,0,0,0,0,0,0,0,0,0,0.3316,0.3312,0,0.2927,0.2922,0.2918,0.271,0.2709,0.2709,0.2709,0.2301,0.2291,0.228,0,0,0,0,0,0,0,0,0,0,0,0,0,0.3867,0.3858,0.3316,0.3311,0.3307,0.2928,0.2922,0.2917,0.271,0.2709,0.2709,0.2709,0.2304,0.2292,0.2279,0,0,0,0,0,0,0,0,0,0,0,0,0,0.3568,0.3855,0.3317,0.3158,0.314,0.2929,0.2922,0.2915,0.271,0.2709,0.2709,0.2708,0.2308,0.2293,0.2278,0.2192,0,0,0.2229,0.2223,0,0,0,0,0,0,0,0,0.3585,0.3548,0.3186,0.3168,0.3148,0.2866,0.2967,0.2673,0.271,0.2873,0.2709,0.2708,0.2489,0.2458,0.2386,0.2173,0.2156,0.2228,0.2218,0.2212,0.2207,0,0,0,0,0,0,0,0.3606,0.3563,0.3162,0.3181,0.3158,0.3101,0.3058,0.291,0.2689,0.2859,0.2843,0.28,0.2478,0.2402,0.2375,0.215,0.2228,0.2214,0.2205,0.2199,0.184,0.1839,0,0,0,0,0,0,0.3654,0.3582,0.3174,0.315,0.337,0.3092,0.3044,0.2957,0.269,0.2649,0.2801,0.2792,0.2429,0.2394,0.236,0.2239,0.2212,0.2197,0.2188,0.184,0.184,0.1839,0,0,0,0,0,0,0.3667,0.362,0.319,0.3362,0.3303,0.3083,0.2988,0.295,0.2873,0.2646,0.2605,0.2765,0.2427,0.2382,0.2235,0.2222,0.219,0.2176,0.184,0.184,0.1839,0.1999,0,0,0,0,0,0,0.3684,0.3626,0.3595,0.3363,0.3294,0.3076,0.2987,0.2943,0.2848,0.2832,0.2601,0.2562,0.2423,0.2259,0.2219,0.22,0.2163,0.184,0.184,0.184,0.1994,0.2004,0.2013,0,0,0,0,0,0.3704,0.3654,0.3594,0.3546,0.3252,0.3076,0.3036,0.288,0.2848,0.2812,0.2665,0.2569,0.223,0.2246,0.2199,0.2175,0.184,0.184,0.184,0.199,0.2002,0.2013,0,0,0,0,0,0,0.3889,0.3621,0.3552,0.3426,0.3276,0.3041,0.2992,0.29,0.2753,0.2744,0.2553,0.2502,0.2372,0.2258,0.2281,0.2074,0.2024,0.2015,0.2155,0.2165,0.2174,0.2204,0.215,0,0,0,0,0,0.3915,0.3799,0.3569,0.348,0.3408,0.3214,0.3131,0.3024,0.2859,0.2793,0.2635,0.2476,0.2332,0.2242,0.2098,0.1976,0.1919,0.1935,0.1945,0.1954,0.1948,0.1869,0.1872,0.1839,0.1839,0.1839,0,0,0.3968,0.3807,0.3745,0.3513,0.3384,0.3263,0.3162,0.3039,0.2946,0.2773,0.2625,0.2503,0.2311,0.2176,0.2108,0.2076,0.1944,0.1954,0.1963,0.1951,0.1869,0.1873,0.1876,0.1839,0.1839,0.1839,0,0,0.4003,0.3871,0.3781,0.3653,0.3459,0.3328,0.3307,0.3085,0.2998,0.2846,0.2713,0.2597,0.2355,0.2223,0.2124,0.2103,0.2007,0.2061,0.2112,0.2037,0.204,0.2041,0.203,0.2029,0.2055,0.2056,0.2056,0,0.4093,0.3909,0.3746,0.3629,0.3529,0.3369,0.3273,0.3155,0.2923,0.2855,0.2824,0.2514,0.2374,0.2203,0.2197,0.2123,0.2089,0.2087,0.2054,0.2053,0.2052,0.2039,0.2036,0.2063,0.2062,0.2062,0.2061,0,0.4027,0.3901,0.385,0.3632,0.3526,0.3421,0.3237,0.3147,0.3048,0.2919,0.2763,0.2589,0.2405,0.2355,0.2257,0.2168,0.2154,0.2091,0.2036,0.2066,0.205,0.2044,0.2074,0.2071,0.2069,0.2067,0,0,0.4171,0.3861,0.3845,0.3742,0.3513,0.341,0.3294,0.3116,0.3042,0.2885,0.278,0.2577,0.2515,0.2403,0.2287,0.2222,0.2211,0.2165,0.2157,0.2178,0.2097,0.2146,0.2144,0.2146,0.2145,0.2143,0.2112,0,0.4172,0.3962,0.3809,0.3655,0.3534,0.3377,0.3275,0.3121,0.2996,0.2871,0.2731,0.2589,0.2521,0.2451,0.238,0.2229,0.2192,0.2228,0.2043,0.2038,0.2096,0.2136,0.2188,0.2168,0.2106,0.2105,0.2104,0,0.4147,0.3997,0.3833,0.3612,0.3555,0.3468,0.3289,0.3173,0.2992,0.2905,0.2778,0.2658,0.2523,0.248,0.2289,0.2317,0.223,0.2144,0.2139,0.2115,0.2073,0.2112,0.2158,0.2155,0.2093,0.2094,0.2095,0,0.4266,0.4022,0.3891,0.3808,0.3548,0.3489,0.3377,0.3196,0.3097,0.2939,0.2871,0.2699,0.2605,0.2471,0.2305,0.2291,0.2129,0.2074,0.2049,0.2053,0.2023,0.2027,0.2055,0.197,0.197,0.197,0.197,0,0.4283,0.4188,0.3941,0.3861,0.3747,0.3568,0.3459,0.3333,0.3172,0.306,0.2912,0.2809,0.2597,0.2466,0.2334,0.2193,0.2152,0.2074,0.204,0.2087,0.2097,0.2028,0.2025,0.1969,0.1969,0.197,0.197,0,0.4398,0.4229,0.4075,0.3841,0.378,0.3706,0.3503,0.3415,0.3281,0.3141,0.3097,0.2885,0.2723,0.2544,0.2322,0.2233,0.2099,0.2051,0.2162,0.2142,0.2127,0.213,0.211,0.2096,0.2025,0.2026,0.2026,0,0.4421,0.4344,0.4101,0.4017,0.391,0.3776,0.3674,0.3492,0.3391,0.3176,0.3113,0.294,0.2793,0.254,0.2363,0.219,0.2136,0.214,0.2109,0.2157,0.2133,0.2139,0.2128,0.2151,0.2152,0.2154,0.2155,0,0.4478,0.4397,0.4257,0.4087,0.397,0.3826,0.3676,0.3614,0.3401,0.3293,0.3127,0.3013,0.2785,0.2613,0.2418,0.2296,0.2188,0.2166,0.215,0.2197,0.2264,0.2225,0.2186,0.2167,0.2166,0.2165,0.2165,0.2164,0.4545,0.4468,0.4284,0.4132,0.4,0.3862,0.3767,0.362,0.348,0.3282,0.3182,0.3015,0.2828,0.2555,0.2437,0.23,0.2266,0.2245,0.2239,0.2236,0.2247,0.2287,0.2264,0.2263,0.2262,0.2262,0.2261,0,0.4593,0.4466,0.4328,0.4122,0.4001,0.3912,0.3739,0.3642,0.3499,0.3336,0.3193,0.2998,0.2829,0.2638,0.2455,0.2382,0.2327,0.234,0.2343,0.2316,0.229,0.232,0.2387,0.2387,0.2387,0.2387,0.2387,0.2387,0.4604,0.4467,0.4363,0.4156,0.4028,0.3866,0.3775,0.3644,0.3512,0.3303,0.3163,0.304,0.2862,0.2665,0.2504,0.2451,0.239,0.2417,0.235,0.2329,0.2318,0.2309,0.2336,0.2405,0.2406,0.2386,0.2386,0.2386]},{"header":{"parameterUnit":"m.s-1","parameterCategory":1,"la1":30.2991,"la2":30.254,"lo1":-89.0895,"lo2":-89.0444,"dy":0.0017,"dx":0.0017,"nx":28,"ny":28,"refTime":"2024-03-01T09:00:00:Z","depth":0,"parameterNumber":3,"parameterNumberName":"V-component_of_WINDS"},"data":[0,0,0,0,0,0,0,0,0,0,0,0,0,0,0,0,0,0,0,0,0,0,0,0,0,0,0,0,0,0,0,0,0,0,0,0,0,0,0,0,0,0,0,0,0,0,0,0,0,0,0,0,0,0,0,0,0,0,2.6196,2.62,0,2.6568,2.6572,2.6576,2.6738,2.6737,2.6737,2.6736,2.7107,2.7117,2.7127,0,0,0,0,0,0,0,0,0,0,0,0,0,2.5611,2.5621,2.6195,2.62,2.6205,2.6567,2.6572,2.6578,2.6738,2.6737,2.6737,2.6736,2.7103,2.7115,2.7128,0,0,0,0,0,0,0,0,0,0,0,0,0,2.5912,2.5624,2.6194,2.6329,2.6344,2.6566,2.6573,2.6579,2.6738,2.6737,2.6736,2.6736,2.7099,2.7114,2.713,2.7242,0,0,2.7177,2.7184,0,0,0,0,0,0,0,0,2.5895,2.5933,2.6304,2.632,2.6338,2.6606,2.6503,2.6801,2.6738,2.6588,2.6736,2.6735,2.694,2.6969,2.704,2.726,2.7276,2.7179,2.7188,2.7195,2.7199,0,0,0,0,0,0,0,2.5874,2.5918,2.6342,2.6309,2.633,2.6366,2.6408,2.656,2.6764,2.6601,2.6614,2.6656,2.6949,2.7025,2.705,2.7281,2.7178,2.7192,2.7202,2.7208,2.7611,2.7612,0,0,0,0,0,0,2.5832,2.59,2.6331,2.6354,2.611,2.6378,2.6425,2.652,2.6763,2.6799,2.6657,2.6663,2.6998,2.7031,2.7063,2.7212,2.7195,2.7209,2.7218,2.761,2.7611,2.7613,0,0,0,0,0,0,2.5819,2.5869,2.6316,2.613,2.619,2.6389,2.6495,2.6528,2.6604,2.6805,2.6841,2.6697,2.6999,2.7042,2.7197,2.7227,2.7216,2.723,2.7608,2.761,2.7612,2.7508,0,0,0,0,0,0,2.5802,2.5864,2.5911,2.613,2.6199,2.6446,2.6497,2.6536,2.6632,2.6643,2.6853,2.6886,2.7002,2.7173,2.7213,2.7248,2.7243,2.7606,2.7609,2.7611,2.751,2.7507,2.7504,0,0,0,0,0,2.578,2.5865,2.5913,2.5964,2.6264,2.6448,2.6487,2.6621,2.6634,2.6682,2.681,2.688,2.7217,2.7188,2.7234,2.7274,2.7605,2.7608,2.7611,2.7512,2.7507,2.7504,0,0,0,0,0,0,2.5641,2.5896,2.5952,2.6111,2.6257,2.6475,2.654,2.6613,2.6755,2.6759,2.6916,2.6962,2.7104,2.7204,2.7167,2.7395,2.7416,2.7429,2.7325,2.7323,2.732,2.7292,2.7255,0,0,0,0,0,2.5629,2.5761,2.5976,2.6094,2.6165,2.6339,2.6424,2.6516,2.6671,2.6733,2.6873,2.7018,2.7157,2.7245,2.7384,2.7525,2.7572,2.7575,2.7571,2.7568,2.7577,2.7658,2.7662,2.7623,2.7623,2.7623,0,0,2.5605,2.5761,2.5834,2.6071,2.6195,2.6324,2.639,2.6525,2.6622,2.6752,2.691,2.7016,2.7189,2.7337,2.741,2.7426,2.7598,2.7572,2.7568,2.7579,2.7661,2.7665,2.7668,2.7625,2.7625,2.7624,0,0,2.5628,2.576,2.5874,2.5997,2.6185,2.63,2.6327,2.6534,2.6612,2.6773,2.6873,2.6988,2.7224,2.7343,2.7434,2.7501,2.7569,2.7541,2.7524,2.7601,2.7605,2.7608,2.7631,2.7638,2.7549,2.7549,2.7548,0,2.5573,2.5778,2.5922,2.6053,2.6152,2.628,2.6394,2.6505,2.6726,2.6791,2.6806,2.7106,2.723,2.7408,2.7425,2.7494,2.7528,2.7518,2.7593,2.7598,2.7603,2.7627,2.7636,2.7544,2.7544,2.7545,2.7545,0,2.5701,2.584,2.5909,2.6124,2.6231,2.6352,2.6512,2.6603,2.6683,2.6795,2.6955,2.711,2.7282,2.7331,2.7409,2.7519,2.7524,2.7563,2.7588,2.76,2.7625,2.7636,2.7537,2.7539,2.754,2.7542,0,0,2.5648,2.5942,2.5965,2.6064,2.628,2.6388,2.6513,2.6685,2.6759,2.6906,2.7014,2.7211,2.725,2.7352,2.7445,2.7513,2.7555,2.7545,2.7551,2.7542,2.7685,2.7654,2.7662,2.7601,2.7604,2.7605,2.767,0,2.5701,2.5937,2.6069,2.6248,2.6377,2.6499,2.6608,2.6749,2.6856,2.6978,2.7095,2.7233,2.7274,2.7337,2.7409,2.7534,2.7586,2.7531,2.77,2.7705,2.7655,2.7676,2.7644,2.7698,2.7681,2.7683,2.7684,0,2.5795,2.5944,2.6136,2.6338,2.6397,2.6493,2.6661,2.6777,2.6938,2.7012,2.7126,2.7219,2.7352,2.7365,2.755,2.751,2.7586,2.7658,2.7663,2.7684,2.7696,2.7698,2.7719,2.7726,2.7701,2.77,2.7699,0,2.5737,2.5985,2.6133,2.6214,2.6452,2.6516,2.6617,2.6779,2.6874,2.7018,2.7081,2.7237,2.7323,2.7441,2.7572,2.7569,2.7742,2.7766,2.7805,2.7801,2.7837,2.7833,2.787,2.7884,2.7884,2.7884,2.7884,0,2.5783,2.5896,2.6111,2.6201,2.633,2.648,2.6602,2.6712,2.6854,2.6966,2.7078,2.7179,2.7347,2.7467,2.757,2.7706,2.7744,2.7804,2.7831,2.7795,2.7788,2.7848,2.7848,2.7886,2.7886,2.7885,2.7885,0,2.5741,2.589,2.6059,2.6271,2.6327,2.6412,2.6592,2.6682,2.6795,2.6934,2.6975,2.7151,2.7299,2.7441,2.7638,2.7707,2.7843,2.7877,2.779,2.7805,2.7835,2.783,2.7913,2.7932,2.7931,2.7931,2.7931,0,2.5761,2.5852,2.6074,2.6159,2.6259,2.6393,2.6491,2.664,2.6737,2.6928,2.6994,2.7151,2.7285,2.7515,2.7658,2.7808,2.7847,2.7866,2.7871,2.7832,2.7848,2.7842,2.7851,2.7862,2.7862,2.7861,2.7861,0,2.5781,2.585,2.599,2.6154,2.6269,2.6404,2.6543,2.6605,2.678,2.6882,2.7037,2.714,2.7343,2.7497,2.7664,2.7764,2.7841,2.7858,2.7875,2.784,2.7786,2.7816,2.7781,2.7856,2.7856,2.7856,2.7857,2.7857,2.5772,2.5858,2.6028,2.6179,2.6299,2.6427,2.6523,2.6648,2.6781,2.6961,2.7039,2.7194,2.7352,2.7585,2.7684,2.7806,2.7824,2.7848,2.7855,2.7859,2.7851,2.7766,2.7836,2.7837,2.7837,2.7837,2.7837,0,2.5798,2.5914,2.6051,2.6244,2.6361,2.6426,2.6583,2.6676,2.6813,2.6955,2.7085,2.7262,2.7411,2.7565,2.7723,2.779,2.7829,2.7826,2.7823,2.7845,2.7826,2.7796,2.7792,2.7792,2.7792,2.7792,2.7792,2.7792,2.5826,2.5975,2.6063,2.6271,2.6386,2.6543,2.6626,2.6743,2.6858,2.7051,2.7177,2.7278,2.7424,2.7593,2.7732,2.7773,2.7825,2.7813,2.7863,2.7843,2.7846,2.7848,2.7821,2.7823,2.7823,2.7873,2.7873,2.7874]}]]